User: anonymous   Login
Location: Brno
(49.2000°N, 16.6330°E)
Time: 00:35:09
(UTC+02:00)
Language:

ISS - Orbit

View from above orbital plane
View from above orbital plane
View from above satellite
View from above satellite

Ground track
Ground track

The orbit data is extracted from the following two-line orbital elements,

1 25544U 98067A   15126.32512131  .00011249  00000-0  16292-3 0  9993
2 25544 051.6474 293.0902 0005226 303.8380 130.7376 15.56394227941526
Epoch (UTC): 06 May 2015 07:48:10
Eccentricity: 0.0005226
inclination: 51.6474°
perigee height: 394 km
apogee height: 401 km
right ascension of ascending node: 293.0902°
argument of perigee: 303.8380°
revolutions per day: 15.56394227
mean anomaly at epoch: 130.7376°
orbit number at epoch: 94152

The dashed part of the orbit path shows where the satellite is in the earth's shadow,  

DLR